TAP1909 LPPT-SBPA

Flight info

Callsign TAP1909
Flight time N/A
Altitude 23000
Route NARTA UN975 SNT/N0447F240 UN741 NELSO/N0481F320 N741 ROSTA/N0483F330 N741 EDUMO UN741 KEPAS/N0490F340 UN741 JOBER/N0483F360 UN741 ERUGU UZ61 REDAD UZ21 VUNOX UZ38 VUKMO DCT VAGAL DCT OPSIV DCT BUXEV DCT ANBIV DCT OGVUV DCT PA004 DCT ISEPA
Aircraft A339/H-SADE1E2E3GHIJ3J5M1P2RWXY/LB2D1

Departure

Time 2026-04-27 08:24
Airport Lisbon Humberto Delgado Airport (LPPT)

Arrival

Time N/A
Airport Porto Alegre-Salgado Filho International Airport (SBPA)
Time Latitude Longitude Altitude Speed Heading
2026-04-27 08:05 38.77673 -9.13219 337 ft 0 kts 121°
2026-04-27 08:11 38.77673 -9.13220 337 ft 1 kts 121°
2026-04-27 08:12 38.77680 -9.13235 337 ft 2 kts 120°
2026-04-27 08:12 38.77688 -9.13252 338 ft 2 kts 121°
2026-04-27 08:12 38.77696 -9.13268 339 ft 2 kts 121°
2026-04-27 08:12 38.77703 -9.13285 340 ft 2 kts 122°
2026-04-27 08:13 38.77712 -9.13300 340 ft 2 kts 131°
2026-04-27 08:13 38.77723 -9.13314 341 ft 2 kts 138°
2026-04-27 08:13 38.77734 -9.13326 342 ft 2 kts 145°
2026-04-27 08:13 38.77747 -9.13336 343 ft 2 kts 152°
2026-04-27 08:14 38.77760 -9.13344 343 ft 2 kts 159°
2026-04-27 08:14 38.77774 -9.13350 344 ft 2 kts 166°
2026-04-27 08:14 38.77782 -9.13352 344 ft 0 kts 169°
2026-04-27 08:16 38.77781 -9.13352 344 ft 0 kts 169°
2026-04-27 08:16 38.77760 -9.13347 343 ft 4 kts 172°
2026-04-27 08:17 38.77719 -9.13356 343 ft 6 kts 201°
2026-04-27 08:17 38.77671 -9.13381 343 ft 8 kts 202°
2026-04-27 08:17 38.77613 -9.13410 343 ft 9 kts 202°
2026-04-27 08:17 38.77550 -9.13443 343 ft 10 kts 202°
2026-04-27 08:18 38.77492 -9.13490 344 ft 9 kts 222°
2026-04-27 08:18 38.77438 -9.13536 344 ft 8 kts 190°
2026-04-27 08:18 38.77366 -9.13519 342 ft 12 kts 169°
2026-04-27 08:18 38.77292 -9.13540 342 ft 10 kts 235°
2026-04-27 08:19 38.77276 -9.13621 345 ft 8 kts 259°
2026-04-27 08:19 38.77267 -9.13682 348 ft 6 kts 259°
2026-04-27 08:19 38.77259 -9.13732 350 ft 5 kts 258°
2026-04-27 08:19 38.77251 -9.13779 351 ft 5 kts 259°
2026-04-27 08:20 38.77237 -9.13832 352 ft 7 kts 229°
2026-04-27 08:20 38.77186 -9.13867 352 ft 10 kts 204°
2026-04-27 08:20 38.77111 -9.13909 352 ft 12 kts 203°
2026-04-27 08:20 38.77025 -9.13956 351 ft 14 kts 202°
2026-04-27 08:21 38.76928 -9.14006 349 ft 15 kts 202°
2026-04-27 08:21 38.76824 -9.14062 347 ft 16 kts 203°
2026-04-27 08:21 38.76717 -9.14119 347 ft 16 kts 202°
2026-04-27 08:21 38.76615 -9.14173 346 ft 13 kts 202°
2026-04-27 08:22 38.76550 -9.14209 345 ft 8 kts 204°
2026-04-27 08:22 38.76528 -9.14267 345 ft 8 kts 282°
2026-04-27 08:22 38.76551 -9.14344 345 ft 9 kts 292°
2026-04-27 08:22 38.76579 -9.14406 347 ft 6 kts 320°
2026-04-27 08:23 38.76617 -9.14403 348 ft 3 kts 24°
2026-04-27 08:23 38.76625 -9.14399 348 ft 1 kts 24°
2026-04-27 08:23 38.76699 -9.14358 349 ft 35 kts 23°
2026-04-27 08:23 38.77122 -9.14132 356 ft 93 kts 23°
2026-04-27 08:24 38.77879 -9.13726 369 ft 142 kts 22°
2026-04-27 08:24 38.78932 -9.13154 426 ft 178 kts 24°
2026-04-27 08:24 38.80055 -9.12535 997 ft 173 kts 25°
2026-04-27 08:24 38.81146 -9.11976 1604 ft 170 kts 24°
2026-04-27 08:25 38.82171 -9.11246 2110 ft 172 kts 35°
2026-04-27 08:25 38.83219 -9.10422 2370 ft 182 kts 33°
2026-04-27 08:25 38.84355 -9.09551 2603 ft 194 kts 33°
2026-04-27 08:25 38.85549 -9.08635 2832 ft 207 kts 33°
2026-04-27 08:26 38.86807 -9.07667 3072 ft 219 kts 34°
2026-04-27 08:26 38.87943 -9.06315 3315 ft 229 kts 61°
2026-04-27 08:26 38.88434 -9.04334 3566 ft 242 kts 88°
2026-04-27 08:26 38.88093 -9.02166 3826 ft 258 kts 116°
2026-04-27 08:27 38.87178 -9.00173 4284 ft 263 kts 118°
2026-04-27 08:27 38.86204 -8.98170 4826 ft 266 kts 128°
2026-04-27 08:27 38.84688 -8.96809 5388 ft 272 kts 160°
2026-04-27 08:27 38.82807 -8.96574 5930 ft 278 kts 188°
2026-04-27 08:28 38.80989 -8.97388 6430 ft 282 kts 201°
2026-04-27 08:28 38.79172 -8.98408 6926 ft 284 kts 201°
2026-04-27 08:28 38.77367 -8.99405 7425 ft 286 kts 201°
2026-04-27 08:28 38.75519 -9.00413 7923 ft 288 kts 200°
2026-04-27 08:29 38.73675 -9.01409 8395 ft 290 kts 200°
2026-04-27 08:29 38.71821 -9.02407 8868 ft 292 kts 200°
2026-04-27 08:29 38.69936 -9.03418 9334 ft 294 kts 200°
2026-04-27 08:29 38.68035 -9.04437 9798 ft 297 kts 200°
2026-04-27 08:30 38.66134 -9.05453 10245 ft 299 kts 200°
2026-04-27 08:30 38.64190 -9.06491 10552 ft 307 kts 200°
2026-04-27 08:30 38.62191 -9.07557 10757 ft 319 kts 201°
2026-04-27 08:30 38.60091 -9.08678 10965 ft 331 kts 201°
2026-04-27 08:31 38.57943 -9.09824 11181 ft 342 kts 201°
2026-04-27 08:31 38.55696 -9.11022 11377 ft 354 kts 201°
2026-04-27 08:31 38.53389 -9.12252 11569 ft 365 kts 201°
2026-04-27 08:31 38.51015 -9.13517 11766 ft 377 kts 201°
2026-04-27 08:32 38.48573 -9.14815 11996 ft 387 kts 201°
2026-04-27 08:32 38.46067 -9.16148 12391 ft 392 kts 201°
2026-04-27 08:32 38.43586 -9.17553 12883 ft 394 kts 205°
2026-04-27 08:32 38.41177 -9.19280 13369 ft 397 kts 211°
2026-04-27 08:33 38.38897 -9.21316 13832 ft 401 kts 216°
2026-04-27 08:33 38.36693 -9.23453 14301 ft 403 kts 217°
2026-04-27 08:33 38.34455 -9.25650 14774 ft 406 kts 217°
2026-04-27 08:33 38.32227 -9.27836 15225 ft 408 kts 217°
2026-04-27 08:34 38.29981 -9.30033 15701 ft 410 kts 217°
2026-04-27 08:34 38.27721 -9.32237 16177 ft 412 kts 217°
2026-04-27 08:34 38.25435 -9.34463 16639 ft 414 kts 217°
2026-04-27 08:34 38.23157 -9.36678 17106 ft 415 kts 217°
2026-04-27 08:35 38.20861 -9.38906 17546 ft 418 kts 217°
2026-04-27 08:35 38.18544 -9.41154 17970 ft 420 kts 217°
2026-04-27 08:35 38.16212 -9.43413 18406 ft 422 kts 217°
2026-04-27 08:35 38.13873 -9.45679 18839 ft 424 kts 217°
2026-04-27 08:36 38.11541 -9.47937 19265 ft 426 kts 217°
2026-04-27 08:36 38.09178 -9.50222 19694 ft 428 kts 217°
2026-04-27 08:36 38.07539 -9.51805 19988 ft 429 kts 217°
2026-04-27 08:36 38.05341 -9.53927 20376 ft 430 kts 217°
2026-04-27 08:37 38.02946 -9.56237 20792 ft 431 kts 217°
2026-04-27 08:37 38.00566 -9.58534 21187 ft 433 kts 218°
2026-04-27 08:37 37.98217 -9.60976 21564 ft 435 kts 220°
2026-04-27 08:37 37.95906 -9.63440 21927 ft 436 kts 220°
2026-04-27 08:38 37.93587 -9.65914 22279 ft 438 kts 219°
2026-04-27 08:38 37.91254 -9.68402 22626 ft 440 kts 219°
2026-04-27 08:38 37.89289 -9.70497 22920 ft 441 kts 219°
2026-04-27 08:38 37.86956 -9.72982 23263 ft 442 kts 219°
2026-04-27 08:39 37.84605 -9.75484 23586 ft 444 kts 219°
2026-04-27 08:39 37.82240 -9.77999 23965 ft 443 kts 219°
2026-04-27 08:39 37.79935 -9.80448 24818 ft 431 kts 219°
2026-04-27 08:39 37.77736 -9.82784 26244 ft 403 kts 219°
2026-04-27 08:40 37.75701 -9.84946 27761 ft 370 kts 219°
2026-04-27 08:40 37.73822 -9.86940 28983 ft 342 kts 219°
2026-04-27 08:40 37.72041 -9.88827 29488 ft 335 kts 219°
2026-04-27 08:40 37.70241 -9.90729 29580 ft 339 kts 219°
2026-04-27 08:41 37.66605 -9.94568 29771 ft 345 kts 219°
2026-04-27 08:41 37.62990 -9.98686 29957 ft 352 kts 225°
2026-04-27 08:42 37.59794 -10.03419 30147 ft 360 kts 232°
2026-04-27 08:42 37.58308 -10.05943 30251 ft 363 kts 232°
2026-04-27 08:42 37.56797 -10.08515 30349 ft 366 kts 232°
2026-04-27 08:43 37.55277 -10.11100 30453 ft 369 kts 232°
2026-04-27 08:43 37.53751 -10.13690 30552 ft 372 kts 232°
2026-04-27 08:43 37.50627 -10.18983 30747 ft 379 kts 232°
2026-04-27 08:44 37.49064 -10.21627 30848 ft 382 kts 232°
2026-04-27 08:44 37.47474 -10.24315 30943 ft 385 kts 232°
2026-04-27 08:44 37.44240 -10.29773 30998 ft 395 kts 232°
2026-04-27 08:45 37.40899 -10.35404 31000 ft 406 kts 232°
2026-04-27 08:45 37.37491 -10.41135 30998 ft 417 kts 232°
2026-04-27 08:46 37.33977 -10.47035 30996 ft 428 kts 232°
2026-04-27 08:46 37.30385 -10.53056 30996 ft 438 kts 232°
2026-04-27 08:47 37.26685 -10.59248 30993 ft 449 kts 232°
2026-04-27 08:47 37.22899 -10.65573 30993 ft 459 kts 231°
2026-04-27 08:48 37.19037 -10.72008 30997 ft 468 kts 231°
2026-04-27 08:48 37.15097 -10.78563 31135 ft 475 kts 231°
2026-04-27 08:49 37.11111 -10.85183 31295 ft 480 kts 231°
2026-04-27 08:49 37.07063 -10.91894 31492 ft 483 kts 231°
2026-04-27 08:50 37.05061 -10.95207 31696 ft 482 kts 231°
2026-04-27 08:50 37.03048 -10.98538 32323 ft 472 kts 231°
2026-04-27 08:50 37.01096 -11.01764 32843 ft 465 kts 231°
2026-04-27 08:50 36.99120 -11.05024 32993 ft 467 kts 231°
2026-04-27 08:51 36.95188 -11.11498 32995 ft 474 kts 231°
2026-04-27 08:51 36.91180 -11.18086 32997 ft 481 kts 231°
2026-04-27 08:52 36.87119 -11.24750 32999 ft 486 kts 231°
2026-04-27 08:52 36.83002 -11.31494 33003 ft 487 kts 231°
2026-04-27 08:53 36.78925 -11.38161 33007 ft 487 kts 231°
2026-04-27 08:53 36.74804 -11.44886 33007 ft 486 kts 231°
2026-04-27 08:54 36.70712 -11.51548 33009 ft 486 kts 231°
2026-04-27 08:54 36.66617 -11.58201 33016 ft 486 kts 231°
2026-04-27 08:55 36.62494 -11.64888 33021 ft 485 kts 231°
2026-04-27 08:55 36.58383 -11.71540 33027 ft 484 kts 231°
2026-04-27 08:56 36.54304 -11.78129 33026 ft 484 kts 231°
2026-04-27 08:56 36.50195 -11.84755 33025 ft 485 kts 231°
2026-04-27 08:57 36.44017 -11.94691 33032 ft 485 kts 231°
2026-04-27 08:58 36.39898 -12.01301 33034 ft 484 kts 231°
2026-04-27 08:58 36.35788 -12.07885 33031 ft 484 kts 231°
2026-04-27 08:59 36.31663 -12.14477 33036 ft 484 kts 231°
2026-04-27 08:59 36.27552 -12.21034 33036 ft 483 kts 231°
2026-04-27 09:00 36.23434 -12.27590 33038 ft 483 kts 231°
2026-04-27 09:00 36.19332 -12.34110 33040 ft 483 kts 231°
2026-04-27 09:01 36.15186 -12.40688 33042 ft 483 kts 231°
2026-04-27 09:01 36.11064 -12.47219 33042 ft 481 kts 231°
2026-04-27 09:02 36.06961 -12.53698 33045 ft 478 kts 231°
2026-04-27 09:02 36.02613 -12.59867 33046 ft 476 kts 227°
2026-04-27 09:03 35.98162 -12.65873 33045 ft 475 kts 227°
2026-04-27 09:03 35.93705 -12.71880 33048 ft 475 kts 227°
2026-04-27 09:04 35.89233 -12.77896 33051 ft 475 kts 227°
2026-04-27 09:04 35.84781 -12.83876 33050 ft 474 kts 227°
2026-04-27 09:05 35.80330 -12.89843 33051 ft 474 kts 227°
2026-04-27 09:05 35.75872 -12.95810 33050 ft 475 kts 227°
2026-04-27 09:06 35.71387 -13.01801 33053 ft 476 kts 227°
2026-04-27 09:06 35.66888 -13.07799 33052 ft 480 kts 227°
2026-04-27 09:07 35.62365 -13.13819 33054 ft 481 kts 227°
2026-04-27 09:07 35.57823 -13.19854 33050 ft 482 kts 227°
2026-04-27 09:08 35.53250 -13.25919 33045 ft 483 kts 226°
2026-04-27 09:08 35.48708 -13.31932 33043 ft 483 kts 226°
2026-04-27 09:09 35.44145 -13.37964 33043 ft 482 kts 226°
2026-04-27 09:09 35.39571 -13.43997 33045 ft 483 kts 226°
2026-04-27 09:10 35.34996 -13.50020 33048 ft 484 kts 226°
2026-04-27 09:10 35.30397 -13.56064 33052 ft 484 kts 226°
2026-04-27 09:11 35.25830 -13.62056 33050 ft 484 kts 226°
2026-04-27 09:11 35.21234 -13.68075 33054 ft 483 kts 226°
2026-04-27 09:12 35.16670 -13.74045 33054 ft 483 kts 226°
2026-04-27 09:12 35.12077 -13.80040 33051 ft 482 kts 226°
2026-04-27 09:13 35.07526 -13.85970 33054 ft 482 kts 226°
2026-04-27 09:13 35.02923 -13.91955 33054 ft 482 kts 226°
2026-04-27 09:14 34.98358 -13.97879 33056 ft 483 kts 226°
2026-04-27 09:14 34.93756 -14.03844 33053 ft 482 kts 226°
2026-04-27 09:15 34.89170 -14.09775 33056 ft 482 kts 226°
2026-04-27 09:15 34.84561 -14.15728 33058 ft 482 kts 226°
2026-04-27 09:16 34.79995 -14.21617 33060 ft 482 kts 226°
2026-04-27 09:16 34.75137 -14.27213 33061 ft 482 kts 221°
2026-04-27 09:17 34.70110 -14.32584 33064 ft 483 kts 221°
2026-04-27 09:17 34.65061 -14.38010 33062 ft 484 kts 222°
2026-04-27 09:18 34.60019 -14.43462 33066 ft 484 kts 222°
2026-04-27 09:18 34.55001 -14.48894 33066 ft 485 kts 222°
2026-04-27 09:19 34.49989 -14.54317 33070 ft 485 kts 222°
2026-04-27 09:19 34.44942 -14.59768 33067 ft 486 kts 223°
2026-04-27 09:20 34.39891 -14.65219 33070 ft 487 kts 222°
2026-04-27 09:20 34.34839 -14.70664 33070 ft 488 kts 222°
2026-04-27 09:21 34.29761 -14.76125 33073 ft 488 kts 221°
2026-04-27 09:21 34.24707 -14.81548 33071 ft 488 kts 221°
2026-04-27 09:22 34.19623 -14.86994 33076 ft 489 kts 222°
2026-04-27 09:22 34.14534 -14.92438 33075 ft 490 kts 222°
2026-04-27 09:23 34.09428 -14.97891 33074 ft 490 kts 222°
2026-04-27 09:23 34.04320 -15.03339 33074 ft 490 kts 222°
2026-04-27 09:24 33.99230 -15.08757 33076 ft 489 kts 222°
2026-04-27 09:24 33.94134 -15.14174 33077 ft 489 kts 222°
2026-04-27 09:25 33.89032 -15.19586 33081 ft 489 kts 222°
2026-04-27 09:25 33.83931 -15.24984 33080 ft 489 kts 222°
2026-04-27 09:26 33.78829 -15.30378 33082 ft 489 kts 222°
2026-04-27 09:26 33.73740 -15.35752 33081 ft 490 kts 222°
2026-04-27 09:27 33.68623 -15.41146 33083 ft 490 kts 222°
2026-04-27 09:27 33.63501 -15.46536 33083 ft 490 kts 222°
2026-04-27 09:28 33.58370 -15.51926 33085 ft 489 kts 222°
2026-04-27 09:28 33.53284 -15.57259 33085 ft 491 kts 222°
2026-04-27 09:29 33.48143 -15.62642 33087 ft 491 kts 222°
2026-04-27 09:29 33.42986 -15.68034 33088 ft 492 kts 222°
2026-04-27 09:30 33.37830 -15.73414 33089 ft 493 kts 222°
2026-04-27 09:30 33.32667 -15.78793 33092 ft 494 kts 222°
2026-04-27 09:31 33.27483 -15.84185 33088 ft 495 kts 222°
2026-04-27 09:31 33.22295 -15.89574 33093 ft 495 kts 222°
2026-04-27 09:32 33.17102 -15.94958 33095 ft 495 kts 222°
2026-04-27 09:32 33.11901 -16.00342 33099 ft 495 kts 222°
2026-04-27 09:33 33.06709 -16.05708 33098 ft 495 kts 222°
2026-04-27 09:33 33.01532 -16.11047 33100 ft 496 kts 222°
2026-04-27 09:34 32.96284 -16.16453 33103 ft 496 kts 222°
2026-04-27 09:34 32.91070 -16.21816 33101 ft 496 kts 222°
2026-04-27 09:35 32.85824 -16.27201 33102 ft 497 kts 222°
2026-04-27 09:35 32.80564 -16.32594 33103 ft 497 kts 222°
2026-04-27 09:36 32.75345 -16.37935 33100 ft 497 kts 222°
2026-04-27 09:36 32.70106 -16.43287 33097 ft 497 kts 222°
2026-04-27 09:37 32.64864 -16.48635 33099 ft 498 kts 222°
2026-04-27 09:37 32.59585 -16.54012 33101 ft 498 kts 222°
2026-04-27 09:38 32.54358 -16.59327 33101 ft 498 kts 222°
2026-04-27 09:38 32.49088 -16.64677 33100 ft 498 kts 222°
2026-04-27 09:39 32.43843 -16.69994 33102 ft 499 kts 222°
2026-04-27 09:39 32.38558 -16.75342 33098 ft 499 kts 222°
2026-04-27 09:40 32.33284 -16.80671 33097 ft 499 kts 222°
2026-04-27 09:40 32.28013 -16.85990 33099 ft 499 kts 222°
2026-04-27 09:41 32.22738 -16.91303 33099 ft 500 kts 222°
2026-04-27 09:41 32.17439 -16.96631 33099 ft 500 kts 222°
2026-04-27 09:42 32.12172 -17.01919 33095 ft 500 kts 222°
2026-04-27 09:42 32.06848 -17.07258 33089 ft 500 kts 222°
2026-04-27 09:43 32.01568 -17.12542 33083 ft 500 kts 222°
2026-04-27 09:43 31.96274 -17.17831 33071 ft 500 kts 223°
2026-04-27 09:44 31.90934 -17.23160 33088 ft 501 kts 223°
2026-04-27 09:44 31.85620 -17.28456 33088 ft 502 kts 223°
2026-04-27 09:45 31.80312 -17.33739 33091 ft 503 kts 223°
2026-04-27 09:45 31.74964 -17.39051 33092 ft 503 kts 223°
2026-04-27 09:46 31.69606 -17.44313 33091 ft 504 kts 221°
2026-04-27 09:46 31.63885 -17.49089 33090 ft 507 kts 216°
2026-04-27 09:47 31.57991 -17.53635 33087 ft 508 kts 216°
2026-04-27 09:47 31.52084 -17.58183 33084 ft 508 kts 216°
2026-04-27 09:48 31.46160 -17.62743 33084 ft 509 kts 216°
2026-04-27 09:48 31.40257 -17.67283 33089 ft 510 kts 216°
2026-04-27 09:49 31.34319 -17.71843 33091 ft 511 kts 216°
2026-04-27 09:49 31.28368 -17.76407 33089 ft 512 kts 216°
2026-04-27 09:50 31.22394 -17.80983 33083 ft 512 kts 216°
2026-04-27 09:50 31.16445 -17.85530 33093 ft 512 kts 216°
2026-04-27 09:51 31.10506 -17.90064 33081 ft 513 kts 216°
2026-04-27 09:51 31.04522 -17.94626 33082 ft 514 kts 216°
2026-04-27 09:52 30.98523 -17.99190 33083 ft 515 kts 217°
2026-04-27 09:52 30.92546 -18.03731 33102 ft 516 kts 217°
2026-04-27 09:53 30.86501 -18.08317 33084 ft 516 kts 217°
2026-04-27 09:53 30.80491 -18.12871 33080 ft 518 kts 217°
2026-04-27 09:54 30.74453 -18.17438 33092 ft 518 kts 218°
2026-04-27 09:54 30.68393 -18.22016 33090 ft 519 kts 218°
2026-04-27 09:55 30.62347 -18.26575 33103 ft 520 kts 218°
2026-04-27 09:55 30.53243 -18.33427 33091 ft 522 kts 218°
2026-04-27 09:56 30.47135 -18.38017 33106 ft 523 kts 218°
2026-04-27 09:56 30.41025 -18.42602 33106 ft 523 kts 218°
2026-04-27 09:57 30.34926 -18.47167 33104 ft 523 kts 219°
2026-04-27 09:57 30.28819 -18.51739 33106 ft 524 kts 219°
2026-04-27 09:58 30.22669 -18.56330 33112 ft 525 kts 219°
2026-04-27 09:58 30.16568 -18.60878 33112 ft 524 kts 219°
2026-04-27 09:59 30.10435 -18.65445 33118 ft 525 kts 218°
2026-04-27 09:59 30.04278 -18.70020 33118 ft 525 kts 219°
2026-04-27 10:00 29.98145 -18.74576 33120 ft 526 kts 219°
2026-04-27 10:00 29.91984 -18.79143 33117 ft 526 kts 219°
2026-04-27 10:01 29.85819 -18.83706 33119 ft 526 kts 219°
2026-04-27 10:01 29.79667 -18.88250 33119 ft 525 kts 219°
2026-04-27 10:02 29.73560 -18.92758 33113 ft 525 kts 219°
2026-04-27 10:02 29.67379 -18.97309 33125 ft 523 kts 219°
2026-04-27 10:03 29.61274 -19.01805 33123 ft 524 kts 219°
2026-04-27 10:03 29.55130 -19.06320 33127 ft 524 kts 219°
2026-04-27 10:04 29.48975 -19.10832 33120 ft 523 kts 219°
2026-04-27 10:04 29.42865 -19.15308 33113 ft 521 kts 219°
2026-04-27 10:05 29.36776 -19.19762 33123 ft 521 kts 219°
2026-04-27 10:05 29.30651 -19.24237 33118 ft 520 kts 219°
2026-04-27 10:06 29.24565 -19.28676 33126 ft 520 kts 219°
2026-04-27 10:06 29.18448 -19.33131 33120 ft 519 kts 219°
2026-04-27 10:07 29.12339 -19.37574 33118 ft 518 kts 219°
2026-04-27 10:07 29.06286 -19.41969 33124 ft 517 kts 220°
2026-04-27 10:08 29.00203 -19.46381 33131 ft 517 kts 219°
2026-04-27 10:08 28.94113 -19.50792 33122 ft 517 kts 219°
2026-04-27 10:09 28.88036 -19.55186 33124 ft 516 kts 220°
2026-04-27 10:09 28.82017 -19.59531 33126 ft 513 kts 220°
2026-04-27 10:10 28.75974 -19.63891 33130 ft 514 kts 220°
2026-04-27 10:10 28.69947 -19.68233 33125 ft 515 kts 219°
2026-04-27 10:11 28.63876 -19.72600 33122 ft 514 kts 219°
2026-04-27 10:11 28.57824 -19.76945 33121 ft 513 kts 219°
2026-04-27 10:12 28.51805 -19.81262 33122 ft 512 kts 219°
2026-04-27 10:12 28.45771 -19.85584 33122 ft 512 kts 219°
2026-04-27 10:13 28.39733 -19.89903 33119 ft 511 kts 219°
2026-04-27 10:13 28.33733 -19.94191 33120 ft 512 kts 219°
2026-04-27 10:14 28.27710 -19.98488 33119 ft 510 kts 219°
2026-04-27 10:14 28.21709 -20.02762 33113 ft 510 kts 219°
2026-04-27 10:15 28.15704 -20.07025 33124 ft 509 kts 219°
2026-04-27 10:15 28.09687 -20.11298 33117 ft 510 kts 219°
2026-04-27 10:16 28.03671 -20.15564 33121 ft 509 kts 219°
2026-04-27 10:16 27.97681 -20.19806 33119 ft 509 kts 219°
2026-04-27 10:17 27.91700 -20.24037 33119 ft 510 kts 219°
2026-04-27 10:17 27.85676 -20.28292 33120 ft 508 kts 219°
2026-04-27 10:18 27.79669 -20.32529 33118 ft 508 kts 219°
2026-04-27 10:18 27.73691 -20.36742 33122 ft 508 kts 219°
2026-04-27 10:19 27.67697 -20.40956 33125 ft 507 kts 219°
2026-04-27 10:19 27.61737 -20.45142 33119 ft 505 kts 219°
2026-04-27 10:20 27.55746 -20.49349 33115 ft 505 kts 219°
2026-04-27 10:20 27.49791 -20.53524 33118 ft 506 kts 219°
2026-04-27 10:21 27.43826 -20.57699 33113 ft 505 kts 219°
2026-04-27 10:21 27.37880 -20.61855 33109 ft 504 kts 219°
2026-04-27 10:22 27.31912 -20.66019 33113 ft 503 kts 218°
2026-04-27 10:22 27.25965 -20.70167 33113 ft 505 kts 218°
2026-04-27 10:23 27.19982 -20.74332 33112 ft 504 kts 218°
2026-04-27 10:23 27.14045 -20.78462 33113 ft 503 kts 218°
2026-04-27 10:24 27.08075 -20.82610 33113 ft 504 kts 218°
2026-04-27 10:24 27.02101 -20.86756 33113 ft 505 kts 218°
2026-04-27 10:25 26.96145 -20.90880 33113 ft 504 kts 218°
2026-04-27 10:25 26.90182 -20.95003 33115 ft 503 kts 218°
2026-04-27 10:26 26.84211 -20.99130 33116 ft 503 kts 218°
2026-04-27 10:26 26.78277 -21.03227 33116 ft 502 kts 218°
2026-04-27 10:27 26.72324 -21.07330 33117 ft 501 kts 218°
2026-04-27 10:27 26.66400 -21.11410 33118 ft 502 kts 218°
2026-04-27 10:28 26.60434 -21.15513 33118 ft 502 kts 218°
2026-04-27 10:28 26.54511 -21.19581 33119 ft 501 kts 218°
2026-04-27 10:29 26.48559 -21.23664 33120 ft 501 kts 218°
2026-04-27 10:29 26.42614 -21.27737 33122 ft 501 kts 217°
2026-04-27 10:30 26.36674 -21.31801 33122 ft 500 kts 217°
2026-04-27 10:30 26.30741 -21.35855 33122 ft 501 kts 217°
2026-04-27 10:31 26.24816 -21.39899 33124 ft 501 kts 217°
2026-04-27 10:31 26.18888 -21.43941 33124 ft 500 kts 217°
2026-04-27 10:32 26.12937 -21.47993 33126 ft 500 kts 217°
2026-04-27 10:32 26.07032 -21.52009 33126 ft 500 kts 217°
2026-04-27 10:33 26.01093 -21.56043 33128 ft 500 kts 217°
2026-04-27 10:33 25.95127 -21.60093 33129 ft 500 kts 217°
2026-04-27 10:34 25.89223 -21.64093 33126 ft 498 kts 217°
2026-04-27 10:34 25.83290 -21.68107 33128 ft 498 kts 217°
2026-04-27 10:35 25.77377 -21.72107 33128 ft 498 kts 217°
2026-04-27 10:35 25.71457 -21.76105 33127 ft 498 kts 217°
2026-04-27 10:36 25.65553 -21.80086 33128 ft 497 kts 217°
2026-04-27 10:36 25.59634 -21.84076 33126 ft 496 kts 216°
2026-04-27 10:37 25.53773 -21.88019 33125 ft 495 kts 216°
2026-04-27 10:37 25.47883 -21.91977 33125 ft 495 kts 216°
2026-04-27 10:38 25.41996 -21.95929 33123 ft 494 kts 216°
2026-04-27 10:38 25.36086 -21.99893 33123 ft 495 kts 216°
2026-04-27 10:39 25.30240 -22.03809 33121 ft 493 kts 216°
2026-04-27 10:39 25.24384 -22.07727 33122 ft 493 kts 216°
2026-04-27 10:40 25.18511 -22.11651 33119 ft 492 kts 216°
2026-04-27 10:40 25.12673 -22.15548 33117 ft 490 kts 216°
2026-04-27 10:41 25.06841 -22.19437 33115 ft 490 kts 216°
2026-04-27 10:41 25.01002 -22.23325 33116 ft 491 kts 216°
2026-04-27 10:42 24.95156 -22.27215 33114 ft 490 kts 216°
2026-04-27 10:42 24.89315 -22.31099 33111 ft 490 kts 216°
2026-04-27 10:43 24.83466 -22.34980 33112 ft 490 kts 216°
2026-04-27 10:43 24.77647 -22.38839 33113 ft 490 kts 216°
2026-04-27 10:44 24.71812 -22.42706 33112 ft 489 kts 216°
2026-04-27 10:44 24.65955 -22.46583 33114 ft 489 kts 216°
2026-04-27 10:45 24.60137 -22.50424 33113 ft 489 kts 216°
2026-04-27 10:45 24.54326 -22.54257 33111 ft 489 kts 216°
2026-04-27 10:46 24.48475 -22.58113 33112 ft 489 kts 216°
2026-04-27 10:46 24.42641 -22.61954 33111 ft 489 kts 216°
2026-04-27 10:47 24.36819 -22.65784 33113 ft 488 kts 215°
2026-04-27 10:47 24.30996 -22.69611 33112 ft 488 kts 215°
2026-04-27 10:48 24.25135 -22.73458 33111 ft 489 kts 216°
2026-04-27 10:48 24.19321 -22.77269 33116 ft 488 kts 216°
2026-04-27 10:49 24.13477 -22.81098 33114 ft 488 kts 216°
2026-04-27 10:49 24.07674 -22.84895 33113 ft 489 kts 216°
2026-04-27 10:50 24.01849 -22.88703 33112 ft 487 kts 216°
2026-04-27 10:50 23.96039 -22.92497 33110 ft 486 kts 216°
2026-04-27 10:51 23.90199 -22.96307 33108 ft 487 kts 216°
2026-04-27 10:51 23.84389 -23.00093 33104 ft 489 kts 216°
2026-04-27 10:52 23.78534 -23.03902 33113 ft 489 kts 216°
2026-04-27 10:52 23.72664 -23.07720 33103 ft 490 kts 216°
2026-04-27 10:53 23.63890 -23.13415 33112 ft 489 kts 216°
2026-04-27 10:54 23.58043 -23.17207 33119 ft 488 kts 216°
2026-04-27 10:54 23.52219 -23.20979 33122 ft 490 kts 216°
2026-04-27 10:55 23.46353 -23.24774 33124 ft 490 kts 217°
2026-04-27 10:55 23.40494 -23.28566 33129 ft 491 kts 217°
2026-04-27 10:56 23.34609 -23.32364 33125 ft 490 kts 217°
2026-04-27 10:56 23.28729 -23.36157 33132 ft 491 kts 217°
2026-04-27 10:57 23.22852 -23.39947 33134 ft 492 kts 217°
2026-04-27 10:57 23.16981 -23.43725 33121 ft 492 kts 217°
2026-04-27 10:58 23.11091 -23.47513 33118 ft 492 kts 218°
2026-04-27 10:58 23.05165 -23.51322 33122 ft 494 kts 218°
2026-04-27 10:59 22.99258 -23.55115 33133 ft 493 kts 218°
2026-04-27 10:59 22.93372 -23.58891 33123 ft 494 kts 218°
2026-04-27 11:00 22.84485 -23.64576 33108 ft 495 kts 219°
2026-04-27 11:00 22.78552 -23.68369 33125 ft 495 kts 218°
2026-04-27 11:01 22.72613 -23.72165 33132 ft 496 kts 218°
2026-04-27 11:01 22.66685 -23.75952 33123 ft 496 kts 219°
2026-04-27 11:02 22.60685 -23.79779 33128 ft 496 kts 219°
2026-04-27 11:02 22.54717 -23.83582 33120 ft 496 kts 219°
2026-04-27 11:03 22.48777 -23.87364 33124 ft 497 kts 219°
2026-04-27 11:03 22.42810 -23.91155 33126 ft 495 kts 219°
2026-04-27 11:04 22.36896 -23.94915 33129 ft 495 kts 219°
2026-04-27 11:04 22.30953 -23.98687 33126 ft 496 kts 219°
2026-04-27 11:05 22.24968 -24.02483 33131 ft 495 kts 220°
2026-04-27 11:05 22.19040 -24.06238 33127 ft 495 kts 220°
2026-04-27 11:06 22.13108 -24.09992 33125 ft 494 kts 220°
2026-04-27 11:06 22.07117 -24.13778 33123 ft 494 kts 220°
2026-04-27 11:07 22.01195 -24.17519 33126 ft 495 kts 220°
2026-04-27 11:07 21.95271 -24.21258 33130 ft 494 kts 220°
2026-04-27 11:08 21.89327 -24.25006 33133 ft 495 kts 220°
2026-04-27 11:08 21.83395 -24.28742 33128 ft 492 kts 220°
2026-04-27 11:09 21.77460 -24.32475 33120 ft 493 kts 220°
2026-04-27 11:09 21.71553 -24.36189 33129 ft 493 kts 220°
2026-04-27 11:10 21.65598 -24.39927 33122 ft 492 kts 219°
2026-04-27 11:10 21.59679 -24.43639 33125 ft 491 kts 220°
2026-04-27 11:11 21.53753 -24.47354 33126 ft 492 kts 219°
2026-04-27 11:11 21.47862 -24.51042 33123 ft 491 kts 219°
2026-04-27 11:12 21.41921 -24.54759 33118 ft 491 kts 219°
2026-04-27 11:12 21.36001 -24.58459 33119 ft 492 kts 219°
2026-04-27 11:13 21.30079 -24.62155 33117 ft 492 kts 219°
2026-04-27 11:13 21.24195 -24.65825 33131 ft 492 kts 219°
2026-04-27 11:14 21.18263 -24.69521 33127 ft 492 kts 219°
2026-04-27 11:14 21.12312 -24.73225 33128 ft 492 kts 219°
2026-04-27 11:15 21.06422 -24.76889 33114 ft 491 kts 218°
2026-04-27 11:15 21.00508 -24.80563 33125 ft 491 kts 218°
2026-04-27 11:16 20.94611 -24.84224 33129 ft 491 kts 218°
2026-04-27 11:16 20.88676 -24.87906 33124 ft 492 kts 218°
2026-04-27 11:17 20.82756 -24.91576 33127 ft 492 kts 218°
2026-04-27 11:17 20.76812 -24.95254 33127 ft 492 kts 218°
2026-04-27 11:18 20.70913 -24.98901 33131 ft 491 kts 218°
2026-04-27 11:18 20.64978 -25.02568 33131 ft 489 kts 218°
2026-04-27 11:19 20.59106 -25.06195 33128 ft 490 kts 218°
2026-04-27 11:19 20.53201 -25.09838 33128 ft 490 kts 218°
2026-04-27 11:20 20.47287 -25.13484 33127 ft 492 kts 218°
2026-04-27 11:20 20.41327 -25.17154 33126 ft 492 kts 218°
2026-04-27 11:21 20.35396 -25.20803 33126 ft 493 kts 218°
2026-04-27 11:21 20.29455 -25.24453 33126 ft 492 kts 218°
2026-04-27 11:22 20.23537 -25.28087 33125 ft 492 kts 218°
2026-04-27 11:22 20.17611 -25.31723 33125 ft 493 kts 218°
2026-04-27 11:23 20.11650 -25.35378 33123 ft 494 kts 217°
2026-04-27 11:23 20.05716 -25.39012 33124 ft 494 kts 217°
2026-04-27 11:24 19.99724 -25.42678 33124 ft 494 kts 217°
2026-04-27 11:24 19.93768 -25.46319 33124 ft 493 kts 217°
2026-04-27 11:25 19.87828 -25.49947 33120 ft 493 kts 217°
2026-04-27 11:25 19.81856 -25.53593 33124 ft 495 kts 217°
2026-04-27 11:26 19.75888 -25.57231 33126 ft 495 kts 217°
2026-04-27 11:26 19.69908 -25.60875 33123 ft 496 kts 217°
2026-04-27 11:27 19.63874 -25.64549 33126 ft 496 kts 217°
2026-04-27 11:27 19.57920 -25.68169 33126 ft 496 kts 217°
2026-04-27 11:28 19.51894 -25.71829 33124 ft 496 kts 217°
2026-04-27 11:28 19.45903 -25.75467 33122 ft 497 kts 217°
2026-04-27 11:29 19.39896 -25.79112 33122 ft 497 kts 217°
2026-04-27 11:29 19.33912 -25.82739 33122 ft 497 kts 217°
2026-04-27 11:30 19.27897 -25.86382 33121 ft 497 kts 216°
2026-04-27 11:30 19.21889 -25.90017 33121 ft 497 kts 216°
2026-04-27 11:31 19.15891 -25.93643 33118 ft 498 kts 216°
2026-04-27 11:31 19.09840 -25.97299 33118 ft 499 kts 216°
2026-04-27 11:32 19.03833 -26.00925 33117 ft 498 kts 216°
2026-04-27 11:32 18.97807 -26.04562 33118 ft 498 kts 216°
2026-04-27 11:33 18.91757 -26.08196 33112 ft 499 kts 216°
2026-04-27 11:33 18.85712 -26.11804 33109 ft 499 kts 216°
2026-04-27 11:34 18.79665 -26.15414 33108 ft 500 kts 216°
2026-04-27 11:34 18.73583 -26.19042 33116 ft 500 kts 216°
2026-04-27 11:35 18.67510 -26.22663 33113 ft 500 kts 216°
2026-04-27 11:35 18.61472 -26.26262 33112 ft 500 kts 216°
2026-04-27 11:36 18.55418 -26.29866 33116 ft 500 kts 216°
2026-04-27 11:36 18.49330 -26.33489 33120 ft 501 kts 216°
2026-04-27 11:37 18.43275 -26.37088 33121 ft 501 kts 216°
2026-04-27 11:37 18.37211 -26.40689 33120 ft 501 kts 215°
2026-04-27 11:38 18.31123 -26.44302 33120 ft 501 kts 215°
2026-04-27 11:38 18.25026 -26.47917 33116 ft 502 kts 216°
2026-04-27 11:39 18.18964 -26.51508 33117 ft 502 kts 215°
2026-04-27 11:39 18.12836 -26.55137 33113 ft 502 kts 216°
2026-04-27 11:40 18.06770 -26.58726 33114 ft 502 kts 215°
2026-04-27 11:40 18.00660 -26.62337 33113 ft 502 kts 215°
2026-04-27 11:41 17.94580 -26.65927 33117 ft 502 kts 215°
2026-04-27 11:41 17.88475 -26.69530 33112 ft 504 kts 215°
2026-04-27 11:42 17.82384 -26.73122 33112 ft 502 kts 215°
2026-04-27 11:42 17.76281 -26.76717 33111 ft 501 kts 215°
2026-04-27 11:43 17.70184 -26.80306 33109 ft 502 kts 215°
2026-04-27 11:43 17.64078 -26.83898 33109 ft 502 kts 215°
2026-04-27 11:44 17.57984 -26.87480 33108 ft 502 kts 214°
2026-04-27 11:44 17.51880 -26.91066 33107 ft 502 kts 214°
2026-04-27 11:45 17.46801 -26.94048 33106 ft 502 kts 214°
2026-04-27 11:45 17.39722 -26.98199 33105 ft 501 kts 214°
2026-04-27 11:46 17.33605 -27.01784 33102 ft 502 kts 214°
2026-04-27 11:46 17.27517 -27.05347 33103 ft 503 kts 214°
2026-04-27 11:47 17.21398 -27.08927 33103 ft 502 kts 214°
2026-04-27 11:47 17.15304 -27.12490 33102 ft 501 kts 214°
2026-04-27 11:48 17.09220 -27.16044 33101 ft 501 kts 214°
2026-04-27 11:48 17.03120 -27.19605 33102 ft 501 kts 214°
2026-04-27 11:49 16.97026 -27.23159 33098 ft 502 kts 214°
2026-04-27 11:49 16.90917 -27.26720 33098 ft 503 kts 214°
2026-04-27 11:50 16.84823 -27.30269 33098 ft 502 kts 214°
2026-04-27 11:50 16.78691 -27.33838 33100 ft 501 kts 214°
2026-04-27 11:51 16.72601 -27.37378 33098 ft 502 kts 214°
2026-04-27 11:52 16.63440 -27.42701 33100 ft 502 kts 214°
2026-04-27 11:52 16.57342 -27.46242 33100 ft 502 kts 214°
2026-04-27 11:53 16.51232 -27.49787 33101 ft 503 kts 214°
2026-04-27 11:53 16.45112 -27.53334 33095 ft 503 kts 213°
2026-04-27 11:54 16.38973 -27.56890 33099 ft 503 kts 213°
2026-04-27 11:54 16.32876 -27.60419 33099 ft 504 kts 213°
2026-04-27 11:55 16.26741 -27.63968 33097 ft 504 kts 214°
2026-04-27 11:55 16.20602 -27.67515 33099 ft 505 kts 213°
2026-04-27 11:56 16.14435 -27.71077 33096 ft 505 kts 213°
2026-04-27 11:56 16.08310 -27.74610 33096 ft 505 kts 213°
2026-04-27 11:57 16.02166 -27.78154 33092 ft 504 kts 213°
2026-04-27 11:57 15.96010 -27.81703 33095 ft 504 kts 213°
2026-04-27 11:58 15.89883 -27.85232 33093 ft 505 kts 213°
2026-04-27 11:58 15.83724 -27.88777 33093 ft 505 kts 213°
2026-04-27 11:59 15.77595 -27.92301 33096 ft 505 kts 213°
2026-04-27 11:59 15.71426 -27.95847 33092 ft 504 kts 213°
2026-04-27 12:00 15.65301 -27.99364 33095 ft 505 kts 213°
2026-04-27 12:00 15.59124 -28.02911 33094 ft 504 kts 213°
2026-04-27 12:01 15.53009 -28.06416 33094 ft 504 kts 213°
2026-04-27 12:01 15.46857 -28.09942 33094 ft 503 kts 213°
2026-04-27 12:02 15.40728 -28.13452 33096 ft 503 kts 213°
2026-04-27 12:02 15.34587 -28.16966 33094 ft 503 kts 213°
2026-04-27 12:03 15.28456 -28.20474 33094 ft 502 kts 213°
2026-04-27 12:03 15.22364 -28.23956 33098 ft 501 kts 213°
2026-04-27 12:04 15.16251 -28.27448 33097 ft 500 kts 213°
2026-04-27 12:04 15.10163 -28.30924 33097 ft 500 kts 212°
2026-04-27 12:05 15.04053 -28.34409 33097 ft 500 kts 213°
2026-04-27 12:05 14.97951 -28.37889 33096 ft 500 kts 212°
2026-04-27 12:06 14.91859 -28.41359 33096 ft 500 kts 212°
2026-04-27 12:06 14.85769 -28.44827 33098 ft 500 kts 212°
2026-04-27 12:07 14.79658 -28.48307 33096 ft 500 kts 212°
2026-04-27 12:07 14.73591 -28.51796 33094 ft 500 kts 212°
2026-04-27 12:08 14.67477 -28.55317 33085 ft 501 kts 213°
2026-04-27 12:08 14.61388 -28.58821 33086 ft 501 kts 212°
2026-04-27 12:09 14.55297 -28.62321 33082 ft 502 kts 212°
2026-04-27 12:09 14.49191 -28.65830 33087 ft 502 kts 212°
2026-04-27 12:10 14.43103 -28.69326 33087 ft 501 kts 212°
2026-04-27 12:10 14.37024 -28.72815 33081 ft 501 kts 212°
2026-04-27 12:11 14.30909 -28.76320 33083 ft 500 kts 212°
2026-04-27 12:11 14.24817 -28.79810 33080 ft 501 kts 212°
2026-04-27 12:12 14.18705 -28.83310 33080 ft 502 kts 212°
2026-04-27 12:12 14.12596 -28.86807 33080 ft 501 kts 212°
2026-04-27 12:13 14.06505 -28.90291 33082 ft 501 kts 212°
2026-04-27 12:13 14.00394 -28.93784 33078 ft 500 kts 212°
2026-04-27 12:14 13.94341 -28.97242 33079 ft 500 kts 212°
2026-04-27 12:14 13.88231 -29.00731 33076 ft 501 kts 212°
2026-04-27 12:15 13.82120 -29.04218 33077 ft 502 kts 212°
2026-04-27 12:15 13.76009 -29.07702 33080 ft 502 kts 212°
2026-04-27 12:16 13.69896 -29.11186 33076 ft 502 kts 211°
2026-04-27 12:16 13.63744 -29.14689 33079 ft 502 kts 211°
2026-04-27 12:17 13.57636 -29.18165 33079 ft 502 kts 211°
2026-04-27 12:17 13.51535 -29.21636 33080 ft 502 kts 211°
2026-04-27 12:18 13.45427 -29.25109 33079 ft 502 kts 211°
2026-04-27 12:18 13.39271 -29.28608 33081 ft 503 kts 211°
2026-04-27 12:19 13.33157 -29.32080 33080 ft 503 kts 211°
2026-04-27 12:19 13.27041 -29.35550 33081 ft 503 kts 211°
2026-04-27 12:20 13.20901 -29.39031 33081 ft 503 kts 211°
2026-04-27 12:20 13.14780 -29.42500 33077 ft 503 kts 211°
2026-04-27 12:21 13.08635 -29.45982 33078 ft 503 kts 211°
2026-04-27 12:21 13.02496 -29.49459 33079 ft 503 kts 211°
2026-04-27 12:22 12.96365 -29.52928 33076 ft 503 kts 211°
2026-04-27 12:22 12.90255 -29.56384 33069 ft 502 kts 211°
2026-04-27 12:23 12.84137 -29.59842 33067 ft 502 kts 211°
2026-04-27 12:23 12.78012 -29.63304 33064 ft 502 kts 211°
2026-04-27 12:24 12.71884 -29.66763 33063 ft 502 kts 210°
2026-04-27 12:24 12.65752 -29.70223 33067 ft 501 kts 210°
2026-04-27 12:25 12.59681 -29.73647 33058 ft 501 kts 210°
2026-04-27 12:25 12.53570 -29.77093 33057 ft 500 kts 210°
2026-04-27 12:26 12.47449 -29.80541 33060 ft 500 kts 210°
2026-04-27 12:26 12.41333 -29.83983 33058 ft 501 kts 210°
2026-04-27 12:27 12.35215 -29.87426 33063 ft 501 kts 210°
2026-04-27 12:27 12.29116 -29.90856 33053 ft 501 kts 210°
2026-04-27 12:28 12.23004 -29.94293 33058 ft 500 kts 210°
2026-04-27 12:28 12.16915 -29.97716 33053 ft 500 kts 210°
2026-04-27 12:29 12.10829 -30.01133 33051 ft 500 kts 210°
2026-04-27 12:29 12.04701 -30.04572 33052 ft 501 kts 210°
2026-04-27 12:30 11.98572 -30.08009 33053 ft 501 kts 210°
2026-04-27 12:30 11.92488 -30.11420 33053 ft 501 kts 210°
2026-04-27 12:31 11.86360 -30.14854 33055 ft 501 kts 210°
2026-04-27 12:31 11.80249 -30.18277 33053 ft 500 kts 210°
2026-04-27 12:32 11.74161 -30.21686 33047 ft 499 kts 210°
2026-04-27 12:32 11.68047 -30.25108 33044 ft 499 kts 210°
2026-04-27 12:33 11.61932 -30.28528 33040 ft 500 kts 210°
2026-04-27 12:33 11.55857 -30.31922 33037 ft 500 kts 210°
2026-04-27 12:34 11.49715 -30.35353 33041 ft 500 kts 210°
2026-04-27 12:34 11.43623 -30.38756 33043 ft 501 kts 210°
2026-04-27 12:35 11.37521 -30.42162 33041 ft 501 kts 210°
2026-04-27 12:35 11.31390 -30.45582 33043 ft 501 kts 210°
2026-04-27 12:36 11.25259 -30.49001 33042 ft 501 kts 210°
2026-04-27 12:36 11.19126 -30.52419 33039 ft 502 kts 210°
2026-04-27 12:37 11.13023 -30.55819 33036 ft 502 kts 209°
2026-04-27 12:37 11.06862 -30.59248 33035 ft 501 kts 209°
2026-04-27 12:38 11.00760 -30.62646 33034 ft 501 kts 209°
2026-04-27 12:38 10.94606 -30.66070 33036 ft 502 kts 209°
2026-04-27 12:39 10.88475 -30.69479 33034 ft 502 kts 209°
2026-04-27 12:39 10.82335 -30.72893 33034 ft 501 kts 209°
2026-04-27 12:40 10.76250 -30.76274 33034 ft 501 kts 209°
2026-04-27 12:40 10.70119 -30.79709 33034 ft 502 kts 209°
2026-04-27 12:41 10.63987 -30.83150 33035 ft 502 kts 209°
2026-04-27 12:41 10.57875 -30.86575 33032 ft 501 kts 209°
2026-04-27 12:42 10.51741 -30.89963 33034 ft 501 kts 208°
2026-04-27 12:42 10.45608 -30.93337 33034 ft 501 kts 208°
2026-04-27 12:43 10.39474 -30.96713 33033 ft 501 kts 208°
2026-04-27 12:43 10.33345 -31.00087 33033 ft 502 kts 208°
2026-04-27 12:44 10.27199 -31.03471 33033 ft 502 kts 208°
2026-04-27 12:44 10.21063 -31.06849 33033 ft 501 kts 208°
2026-04-27 12:45 10.14940 -31.10217 33033 ft 501 kts 208°
2026-04-27 12:45 10.08784 -31.13601 33033 ft 501 kts 208°
2026-04-27 12:46 10.02677 -31.16957 33033 ft 501 kts 208°
2026-04-27 12:46 9.96525 -31.20337 33033 ft 501 kts 208°
2026-04-27 12:47 9.90380 -31.23710 33033 ft 502 kts 208°
2026-04-27 12:47 9.84211 -31.27095 33035 ft 500 kts 208°
2026-04-27 12:48 9.78081 -31.30461 33033 ft 501 kts 208°
2026-04-27 12:48 9.71954 -31.33825 33033 ft 504 kts 208°
2026-04-27 12:49 9.65777 -31.37210 33034 ft 505 kts 208°
2026-04-27 12:49 9.59564 -31.40611 33034 ft 506 kts 208°
2026-04-27 12:50 9.53352 -31.44011 33036 ft 507 kts 208°
2026-04-27 12:50 9.47147 -31.47407 33034 ft 507 kts 208°
2026-04-27 12:51 9.40889 -31.50832 33034 ft 508 kts 208°
2026-04-27 12:51 9.34677 -31.54230 33034 ft 509 kts 208°
2026-04-27 12:52 9.28440 -31.57640 33035 ft 509 kts 208°
2026-04-27 12:52 9.22175 -31.61065 33034 ft 510 kts 208°
2026-04-27 12:53 9.12811 -31.66181 33034 ft 510 kts 208°
2026-04-27 12:53 9.06571 -31.69589 33037 ft 510 kts 208°
2026-04-27 12:54 9.00276 -31.73025 33034 ft 510 kts 208°
2026-04-27 12:54 8.94025 -31.76436 33031 ft 510 kts 208°
2026-04-27 12:55 8.87795 -31.79833 33033 ft 511 kts 208°
2026-04-27 12:55 8.81504 -31.83263 33029 ft 511 kts 208°
2026-04-27 12:56 8.75222 -31.86687 33028 ft 511 kts 208°
2026-04-27 12:56 8.69002 -31.90075 33029 ft 510 kts 207°
2026-04-27 12:57 8.62742 -31.93485 33024 ft 511 kts 207°
2026-04-27 12:57 8.56431 -31.96920 33018 ft 511 kts 207°
2026-04-27 12:58 8.50168 -32.00326 33018 ft 512 kts 207°
2026-04-27 12:58 8.43901 -32.03735 33013 ft 512 kts 207°
2026-04-27 12:59 8.37588 -32.07171 33007 ft 513 kts 207°
2026-04-27 12:59 8.31280 -32.10598 33009 ft 514 kts 207°
2026-04-27 13:00 8.24985 -32.14018 33005 ft 514 kts 207°
2026-04-27 13:00 8.18708 -32.17426 33004 ft 513 kts 207°
2026-04-27 13:01 8.12389 -32.20858 33005 ft 513 kts 207°
2026-04-27 13:01 8.06085 -32.24279 33011 ft 514 kts 207°
2026-04-27 13:02 7.99818 -32.27681 33011 ft 514 kts 207°
2026-04-27 13:02 7.93477 -32.31119 33012 ft 514 kts 207°
2026-04-27 13:03 7.87191 -32.34526 33010 ft 514 kts 207°
2026-04-27 13:03 7.80861 -32.37957 33008 ft 513 kts 207°
2026-04-27 13:04 7.74573 -32.41364 33008 ft 513 kts 207°
2026-04-27 13:04 7.68277 -32.44774 33007 ft 514 kts 207°
2026-04-27 13:05 7.61977 -32.48185 33004 ft 513 kts 206°
2026-04-27 13:05 7.55672 -32.51598 33004 ft 513 kts 206°
2026-04-27 13:06 7.49374 -32.55005 33001 ft 512 kts 207°
2026-04-27 13:06 7.43117 -32.58388 33001 ft 512 kts 206°
2026-04-27 13:07 7.36827 -32.61792 33000 ft 512 kts 206°
2026-04-27 13:07 7.30554 -32.65183 32999 ft 512 kts 206°
2026-04-27 13:08 7.24271 -32.68577 32996 ft 512 kts 206°
2026-04-27 13:08 7.17998 -32.71965 32997 ft 512 kts 206°
2026-04-27 13:09 7.11731 -32.75348 32995 ft 510 kts 206°
2026-04-27 13:09 7.05438 -32.78746 32996 ft 509 kts 206°
2026-04-27 13:10 6.99202 -32.82113 33001 ft 509 kts 206°
2026-04-27 13:10 6.92973 -32.85473 33014 ft 509 kts 206°
2026-04-27 13:11 6.86699 -32.88856 33014 ft 509 kts 206°
2026-04-27 13:11 6.80425 -32.92238 33006 ft 510 kts 206°
2026-04-27 13:12 6.74174 -32.95607 33011 ft 510 kts 206°
2026-04-27 13:12 6.67918 -32.98978 33009 ft 510 kts 206°
2026-04-27 13:13 6.61662 -33.02350 33004 ft 510 kts 206°
2026-04-27 13:13 6.55401 -33.05723 33003 ft 510 kts 206°
2026-04-27 13:14 6.49132 -33.09097 33002 ft 510 kts 206°
2026-04-27 13:14 6.42858 -33.12474 32999 ft 511 kts 206°
2026-04-27 13:15 6.36580 -33.15854 32990 ft 511 kts 206°
2026-04-27 13:15 6.30300 -33.19226 32988 ft 511 kts 205°
2026-04-27 13:16 6.23983 -33.22601 32982 ft 511 kts 206°
2026-04-27 13:16 6.17723 -33.25948 32988 ft 511 kts 205°
2026-04-27 13:17 6.11422 -33.29315 32989 ft 511 kts 206°
2026-04-27 13:17 6.05159 -33.32663 32995 ft 512 kts 206°
2026-04-27 13:18 5.98847 -33.36037 32992 ft 513 kts 205°
2026-04-27 13:18 5.92538 -33.39408 32988 ft 513 kts 206°
2026-04-27 13:19 5.86215 -33.42784 32988 ft 511 kts 206°
2026-04-27 13:19 5.79963 -33.46124 32986 ft 510 kts 206°
2026-04-27 13:20 5.73664 -33.49488 32985 ft 510 kts 206°
2026-04-27 13:20 5.67391 -33.52837 32985 ft 510 kts 206°
2026-04-27 13:21 5.61132 -33.56175 32983 ft 509 kts 206°
2026-04-27 13:21 5.54850 -33.59526 32983 ft 509 kts 206°
2026-04-27 13:22 5.48590 -33.62865 32981 ft 509 kts 206°
2026-04-27 13:22 5.42337 -33.66199 32979 ft 509 kts 206°
2026-04-27 13:23 5.36085 -33.69534 32979 ft 508 kts 206°
2026-04-27 13:23 5.29816 -33.72876 32977 ft 508 kts 206°
2026-04-27 13:24 5.23568 -33.76204 32975 ft 507 kts 206°
2026-04-27 13:24 5.17343 -33.79520 32977 ft 507 kts 206°
2026-04-27 13:25 5.11091 -33.82850 32976 ft 507 kts 206°
2026-04-27 13:25 5.04870 -33.86162 32974 ft 506 kts 206°
2026-04-27 13:26 4.98661 -33.89468 32973 ft 507 kts 206°
2026-04-27 13:26 4.92412 -33.92796 32971 ft 508 kts 206°
2026-04-27 13:27 4.86143 -33.96132 32972 ft 507 kts 206°
2026-04-27 13:27 4.79932 -33.99437 32974 ft 506 kts 206°
2026-04-27 13:28 4.73708 -34.02748 32969 ft 506 kts 206°
2026-04-27 13:28 4.67470 -34.06066 32968 ft 505 kts 206°
2026-04-27 13:29 4.61267 -34.09365 32975 ft 506 kts 206°
2026-04-27 13:29 4.55014 -34.12690 32979 ft 506 kts 206°
2026-04-27 13:30 4.48808 -34.15990 32980 ft 506 kts 206°
2026-04-27 13:30 4.42606 -34.19309 32980 ft 505 kts 206°
2026-04-27 13:31 4.36401 -34.22635 32977 ft 504 kts 206°
2026-04-27 13:31 4.30203 -34.25955 32976 ft 504 kts 206°
2026-04-27 13:32 4.23987 -34.29282 32974 ft 504 kts 206°
2026-04-27 13:32 4.17820 -34.32583 32974 ft 504 kts 206°
2026-04-27 13:33 4.11620 -34.35902 32971 ft 505 kts 206°
2026-04-27 13:33 4.05377 -34.39242 32971 ft 505 kts 206°
2026-04-27 13:34 3.99221 -34.42536 32970 ft 504 kts 206°
2026-04-27 13:34 3.92988 -34.45869 32970 ft 504 kts 206°
2026-04-27 13:35 3.86811 -34.49173 32968 ft 504 kts 206°
2026-04-27 13:35 3.80639 -34.52474 32967 ft 504 kts 206°
2026-04-27 13:36 3.74450 -34.55783 32960 ft 504 kts 206°
2026-04-27 13:36 3.68251 -34.59098 32953 ft 503 kts 206°
2026-04-27 13:37 3.62078 -34.62397 32955 ft 503 kts 206°
2026-04-27 13:37 3.55855 -34.65722 32958 ft 504 kts 206°
2026-04-27 13:38 3.49677 -34.69022 32959 ft 503 kts 205°
2026-04-27 13:38 3.43497 -34.72322 32960 ft 504 kts 205°
2026-04-27 13:39 3.37307 -34.75628 32958 ft 504 kts 205°
2026-04-27 13:39 3.31097 -34.78945 32957 ft 503 kts 205°
2026-04-27 13:40 3.24942 -34.82232 32956 ft 503 kts 205°
2026-04-27 13:40 3.18745 -34.85541 32955 ft 502 kts 205°
2026-04-27 13:41 3.12564 -34.88839 32954 ft 503 kts 205°
2026-04-27 13:41 3.06405 -34.92126 32954 ft 503 kts 205°
2026-04-27 13:42 3.00209 -34.95434 32960 ft 503 kts 205°
2026-04-27 13:42 2.94008 -34.98743 32968 ft 503 kts 205°
2026-04-27 13:43 2.87840 -35.02034 32971 ft 503 kts 205°
2026-04-27 13:43 2.81640 -35.05344 32967 ft 503 kts 205°
2026-04-27 13:44 2.75483 -35.08628 32969 ft 502 kts 205°
2026-04-27 13:44 2.69309 -35.11921 32966 ft 501 kts 205°
2026-04-27 13:45 2.63121 -35.15206 32967 ft 502 kts 205°
2026-04-27 13:45 2.56956 -35.18475 32970 ft 502 kts 205°
2026-04-27 13:46 2.50768 -35.21760 32971 ft 503 kts 205°
2026-04-27 13:46 2.44594 -35.25035 32971 ft 502 kts 205°
2026-04-27 13:47 2.38409 -35.28317 32971 ft 503 kts 205°
2026-04-27 13:47 2.32211 -35.31606 32972 ft 502 kts 205°
2026-04-27 13:48 2.26053 -35.34874 32972 ft 502 kts 205°
2026-04-27 13:48 2.19869 -35.38154 32972 ft 501 kts 205°
2026-04-27 13:49 2.13696 -35.41429 32971 ft 502 kts 205°
2026-04-27 13:49 2.07508 -35.44711 32971 ft 502 kts 205°
2026-04-27 13:50 2.01323 -35.47993 32971 ft 502 kts 205°
2026-04-27 13:50 1.95131 -35.51275 32970 ft 502 kts 205°
2026-04-27 13:51 1.88964 -35.54546 32972 ft 502 kts 205°
2026-04-27 13:51 1.82799 -35.57814 32970 ft 502 kts 205°
2026-04-27 13:52 1.76604 -35.61098 32970 ft 502 kts 205°
2026-04-27 13:52 1.70415 -35.64379 32971 ft 502 kts 205°
2026-04-27 13:53 1.61137 -35.69298 32968 ft 503 kts 205°
2026-04-27 13:54 1.54956 -35.72575 32971 ft 503 kts 205°
2026-04-27 13:54 1.48755 -35.75861 32971 ft 503 kts 205°
2026-04-27 13:55 1.42554 -35.79148 32971 ft 503 kts 205°
2026-04-27 13:55 1.36353 -35.82433 32972 ft 503 kts 205°
2026-04-27 13:56 1.30164 -35.85714 32972 ft 504 kts 205°
2026-04-27 13:56 1.23950 -35.89006 32971 ft 504 kts 205°
2026-04-27 13:57 1.17760 -35.92287 32973 ft 504 kts 205°
2026-04-27 13:57 1.11574 -35.95563 32973 ft 504 kts 205°
2026-04-27 13:58 1.05348 -35.98863 32972 ft 504 kts 205°
2026-04-27 13:58 0.99164 -36.02140 32977 ft 504 kts 205°
2026-04-27 13:58 0.96062 -36.03783 33245 ft 503 kts 205°
2026-04-27 13:59 0.92962 -36.05426 33863 ft 496 kts 205°
2026-04-27 13:59 0.89948 -36.07024 34479 ft 489 kts 205°
2026-04-27 13:59 0.86915 -36.08631 34906 ft 486 kts 205°
2026-04-27 13:59 0.83924 -36.10215 35176 ft 485 kts 205°
2026-04-27 14:00 0.80960 -36.11784 35407 ft 486 kts 205°
2026-04-27 14:00 0.77970 -36.13367 35630 ft 486 kts 205°
2026-04-27 14:00 0.74988 -36.14948 35868 ft 485 kts 205°
2026-04-27 14:00 0.71973 -36.16544 36111 ft 485 kts 205°
2026-04-27 14:01 0.68997 -36.18121 36339 ft 484 kts 205°
2026-04-27 14:01 0.66009 -36.19702 36556 ft 484 kts 205°
2026-04-27 14:01 0.63057 -36.21266 36754 ft 484 kts 205°
2026-04-27 14:01 0.60054 -36.22857 36947 ft 484 kts 205°
2026-04-27 14:02 0.57097 -36.24423 36969 ft 485 kts 205°
2026-04-27 14:02 0.51102 -36.27598 36973 ft 485 kts 205°
2026-04-27 14:03 0.45158 -36.30747 36972 ft 484 kts 205°
2026-04-27 14:03 0.39200 -36.33902 36976 ft 484 kts 206°
2026-04-27 14:04 0.33226 -36.37067 36975 ft 484 kts 205°
2026-04-27 14:04 0.27262 -36.40226 36975 ft 484 kts 205°
2026-04-27 14:05 0.21310 -36.43378 36974 ft 485 kts 205°
2026-04-27 14:05 0.15357 -36.46529 36973 ft 485 kts 205°
2026-04-27 14:06 0.09389 -36.49691 36972 ft 485 kts 206°
2026-04-27 14:06 0.03384 -36.52871 36975 ft 485 kts 206°
2026-04-27 14:07 -0.02566 -36.56023 36972 ft 485 kts 205°
2026-04-27 14:07 -0.08563 -36.59199 36971 ft 486 kts 205°
2026-04-27 14:08 -0.14532 -36.62360 36970 ft 486 kts 205°
2026-04-27 14:08 -0.20511 -36.65526 36969 ft 486 kts 205°
2026-04-27 14:09 -0.26508 -36.68702 36966 ft 486 kts 205°
2026-04-27 14:09 -0.32485 -36.71868 36956 ft 487 kts 205°
2026-04-27 14:10 -0.38485 -36.75045 36951 ft 488 kts 205°
2026-04-27 14:10 -0.44541 -36.78254 36950 ft 488 kts 205°
2026-04-27 14:11 -0.50538 -36.81429 36955 ft 489 kts 206°
2026-04-27 14:11 -0.56576 -36.84627 36966 ft 489 kts 206°
2026-04-27 14:12 -0.62578 -36.87808 36970 ft 489 kts 205°
2026-04-27 14:12 -0.68581 -36.90988 36971 ft 489 kts 205°
2026-04-27 14:13 -0.74648 -36.94200 36968 ft 490 kts 206°
2026-04-27 14:13 -0.80663 -36.97387 36970 ft 490 kts 206°
2026-04-27 14:14 -0.86690 -37.00581 36973 ft 490 kts 206°
2026-04-27 14:14 -0.92718 -37.03771 36974 ft 489 kts 205°
2026-04-27 14:15 -0.98907 -37.06651 36975 ft 488 kts 201°
2026-04-27 14:15 -1.05139 -37.09344 36973 ft 488 kts 201°
2026-04-27 14:16 -1.11389 -37.12036 36974 ft 488 kts 201°
2026-04-27 14:16 -1.17639 -37.14736 36974 ft 489 kts 201°
2026-04-27 14:17 -1.23897 -37.17440 36972 ft 488 kts 201°
2026-04-27 14:17 -1.30114 -37.20127 36974 ft 488 kts 201°
2026-04-27 14:18 -1.36361 -37.22828 36974 ft 487 kts 201°
2026-04-27 14:18 -1.42595 -37.25523 36973 ft 487 kts 201°
2026-04-27 14:19 -1.48845 -37.28225 36974 ft 488 kts 201°
2026-04-27 14:19 -1.55059 -37.30912 36974 ft 488 kts 201°
2026-04-27 14:20 -1.61319 -37.33619 36974 ft 488 kts 201°
2026-04-27 14:20 -1.67579 -37.36328 36976 ft 488 kts 201°
2026-04-27 14:21 -1.73808 -37.39021 36976 ft 488 kts 201°
2026-04-27 14:21 -1.80077 -37.41732 36977 ft 487 kts 201°
2026-04-27 14:22 -1.86293 -37.44420 36973 ft 488 kts 201°
2026-04-27 14:22 -1.92542 -37.47125 36975 ft 489 kts 201°
2026-04-27 14:23 -1.98778 -37.49822 36973 ft 489 kts 201°
2026-04-27 14:23 -2.05050 -37.52535 36976 ft 489 kts 201°
2026-04-27 14:24 -2.11271 -37.55228 36972 ft 488 kts 201°
2026-04-27 14:24 -2.17524 -37.57933 36972 ft 487 kts 201°
2026-04-27 14:25 -2.23729 -37.60618 36971 ft 487 kts 201°
2026-04-27 14:25 -2.29970 -37.63321 36971 ft 486 kts 201°
2026-04-27 14:26 -2.36199 -37.66016 36969 ft 487 kts 201°
2026-04-27 14:26 -2.42409 -37.68704 36968 ft 487 kts 201°
2026-04-27 14:27 -2.48651 -37.71406 36965 ft 487 kts 201°
2026-04-27 14:27 -2.54851 -37.74090 36966 ft 486 kts 201°
2026-04-27 14:28 -2.61081 -37.76790 36966 ft 486 kts 201°
2026-04-27 14:28 -2.67301 -37.79483 36966 ft 486 kts 201°
2026-04-27 14:29 -2.73519 -37.82176 36966 ft 486 kts 201°
2026-04-27 14:29 -2.79744 -37.84873 36967 ft 486 kts 201°
2026-04-27 14:30 -2.85961 -37.87566 36967 ft 486 kts 201°
2026-04-27 14:30 -2.92185 -37.90262 36967 ft 485 kts 201°
2026-04-27 14:31 -2.98398 -37.92955 36962 ft 484 kts 201°
2026-04-27 14:31 -3.04577 -37.95632 36959 ft 485 kts 201°
2026-04-27 14:32 -3.10779 -37.98322 36961 ft 486 kts 201°
2026-04-27 14:32 -3.16993 -38.01158 36951 ft 488 kts 202°
2026-04-27 14:33 -3.23143 -38.04033 36953 ft 489 kts 202°
2026-04-27 14:33 -3.29313 -38.06903 36950 ft 489 kts 202°
2026-04-27 14:34 -3.35489 -38.09769 36952 ft 489 kts 203°
2026-04-27 14:34 -3.41702 -38.12650 36950 ft 490 kts 202°
2026-04-27 14:35 -3.47909 -38.15527 36950 ft 491 kts 202°
2026-04-27 14:35 -3.54100 -38.18396 36957 ft 492 kts 202°
2026-04-27 14:36 -3.60388 -38.21192 36953 ft 492 kts 202°
2026-04-27 14:36 -3.66653 -38.23951 36956 ft 492 kts 202°
2026-04-27 14:37 -3.72960 -38.26737 36954 ft 493 kts 202°
2026-04-27 14:37 -3.79217 -38.29507 36963 ft 492 kts 202°
2026-04-27 14:38 -3.85425 -38.32258 36961 ft 493 kts 202°
2026-04-27 14:38 -3.91716 -38.35045 36963 ft 493 kts 202°
2026-04-27 14:39 -3.98021 -38.37838 36967 ft 494 kts 202°
2026-04-27 14:39 -4.04268 -38.40623 36969 ft 493 kts 203°
2026-04-27 14:40 -4.10603 -38.43447 36966 ft 493 kts 202°
2026-04-27 14:40 -4.16882 -38.46236 36962 ft 493 kts 202°
2026-04-27 14:41 -4.23145 -38.49018 36962 ft 493 kts 202°
2026-04-27 14:41 -4.29410 -38.51836 36963 ft 494 kts 204°
2026-04-27 14:42 -4.35513 -38.55050 36969 ft 495 kts 207°
2026-04-27 14:42 -4.41575 -38.58368 36971 ft 496 kts 207°
2026-04-27 14:43 -4.47688 -38.61589 36975 ft 495 kts 204°
2026-04-27 14:43 -4.54075 -38.64214 36978 ft 494 kts 198°
2026-04-27 14:44 -4.60554 -38.66521 36973 ft 494 kts 198°
2026-04-27 14:44 -4.67064 -38.68831 36972 ft 494 kts 198°
2026-04-27 14:45 -4.73603 -38.71161 36971 ft 494 kts 198°
2026-04-27 14:45 -4.80100 -38.73481 36976 ft 495 kts 198°
2026-04-27 14:46 -4.86670 -38.75825 36979 ft 496 kts 198°
2026-04-27 14:46 -4.93170 -38.78154 36987 ft 496 kts 198°
2026-04-27 14:47 -4.99660 -38.80487 36995 ft 496 kts 198°
2026-04-27 14:47 -5.06172 -38.82829 36999 ft 497 kts 198°
2026-04-27 14:48 -5.12718 -38.85183 36999 ft 497 kts 198°
2026-04-27 14:48 -5.22506 -38.88703 36996 ft 497 kts 198°
2026-04-27 14:49 -5.29024 -38.91049 36994 ft 498 kts 198°
2026-04-27 14:49 -5.35571 -38.93404 36995 ft 498 kts 198°
2026-04-27 14:50 -5.42109 -38.95756 36993 ft 498 kts 198°
2026-04-27 14:50 -5.48655 -38.98111 36994 ft 498 kts 198°
2026-04-27 14:51 -5.55188 -39.00464 36992 ft 499 kts 198°
2026-04-27 14:51 -5.60640 -39.02427 36990 ft 499 kts 198°
2026-04-27 14:52 -5.68306 -39.05188 36993 ft 500 kts 198°
2026-04-27 14:52 -5.74850 -39.07544 36994 ft 500 kts 198°
2026-04-27 14:53 -5.81424 -39.09909 36997 ft 500 kts 198°
2026-04-27 14:53 -5.87997 -39.12270 37003 ft 501 kts 198°
2026-04-27 14:54 -5.94574 -39.14635 37013 ft 501 kts 198°
2026-04-27 14:54 -6.01192 -39.17015 37012 ft 502 kts 198°
2026-04-27 14:55 -6.07796 -39.19390 37011 ft 502 kts 198°
2026-04-27 14:55 -6.14453 -39.21782 37010 ft 502 kts 198°
2026-04-27 14:56 -6.21017 -39.24142 37007 ft 501 kts 198°
2026-04-27 14:56 -6.27648 -39.26528 37004 ft 501 kts 198°
2026-04-27 14:57 -6.34243 -39.28905 37003 ft 501 kts 198°
2026-04-27 14:57 -6.40817 -39.31277 37004 ft 502 kts 198°
2026-04-27 14:58 -6.47385 -39.33646 37000 ft 501 kts 198°
2026-04-27 14:58 -6.54046 -39.36049 36999 ft 501 kts 198°
2026-04-27 14:59 -6.60628 -39.38423 37000 ft 501 kts 198°
2026-04-27 14:59 -6.67199 -39.40793 37005 ft 500 kts 198°
2026-04-27 15:00 -6.73783 -39.43172 37006 ft 501 kts 198°
2026-04-27 15:00 -6.80415 -39.45565 37009 ft 501 kts 198°
2026-04-27 15:01 -6.86956 -39.47929 37025 ft 500 kts 198°
2026-04-27 15:01 -6.93550 -39.50312 37034 ft 500 kts 198°
2026-04-27 15:02 -7.00117 -39.52687 37049 ft 500 kts 198°
2026-04-27 15:02 -7.06656 -39.55051 37060 ft 499 kts 198°
2026-04-27 15:03 -7.13197 -39.57418 37068 ft 498 kts 198°
2026-04-27 15:03 -7.19734 -39.59784 37075 ft 499 kts 198°
2026-04-27 15:04 -7.26303 -39.62161 37084 ft 498 kts 198°
2026-04-27 15:04 -7.32841 -39.64528 37088 ft 498 kts 198°
2026-04-27 15:05 -7.39361 -39.66888 37090 ft 499 kts 198°
2026-04-27 15:05 -7.45941 -39.69272 37090 ft 499 kts 198°
2026-04-27 15:06 -7.52491 -39.71645 37093 ft 499 kts 198°
2026-04-27 15:06 -7.59039 -39.74017 37091 ft 499 kts 198°
2026-04-27 15:07 -7.65630 -39.76408 37090 ft 499 kts 198°
2026-04-27 15:07 -7.72190 -39.78788 37084 ft 499 kts 198°
2026-04-27 15:08 -7.78754 -39.81169 37078 ft 499 kts 198°
2026-04-27 15:08 -7.85347 -39.83562 37069 ft 499 kts 198°
2026-04-27 15:09 -7.91966 -39.85966 37061 ft 498 kts 198°
2026-04-27 15:09 -7.98500 -39.88340 37052 ft 498 kts 198°
2026-04-27 15:10 -8.05095 -39.90736 37044 ft 499 kts 198°
2026-04-27 15:10 -8.11681 -39.93131 37037 ft 498 kts 198°
2026-04-27 15:11 -8.18281 -39.95530 37030 ft 498 kts 198°
2026-04-27 15:11 -8.24839 -39.97916 37020 ft 497 kts 198°
2026-04-27 15:12 -8.31387 -40.00299 37020 ft 497 kts 198°
2026-04-27 15:12 -8.37973 -40.02697 37016 ft 498 kts 198°
2026-04-27 15:13 -8.44546 -40.05090 37020 ft 497 kts 198°
2026-04-27 15:13 -8.51090 -40.07475 37018 ft 497 kts 198°
2026-04-27 15:14 -8.57638 -40.09860 37017 ft 496 kts 198°
2026-04-27 15:14 -8.64140 -40.12230 37018 ft 497 kts 198°
2026-04-27 15:15 -8.70704 -40.14624 37020 ft 497 kts 198°
2026-04-27 15:15 -8.77212 -40.16998 37023 ft 497 kts 198°
2026-04-27 15:16 -8.83747 -40.19383 37020 ft 496 kts 198°
2026-04-27 15:16 -8.90296 -40.21774 37012 ft 496 kts 198°
2026-04-27 15:17 -8.96809 -40.24153 37004 ft 495 kts 198°
2026-04-27 15:17 -9.03283 -40.26519 36997 ft 495 kts 198°
2026-04-27 15:18 -9.09825 -40.28909 37002 ft 496 kts 198°
2026-04-27 15:18 -9.16326 -40.31287 37010 ft 495 kts 198°
2026-04-27 15:19 -9.22829 -40.33668 37017 ft 495 kts 198°
2026-04-27 15:19 -9.29315 -40.36041 37023 ft 494 kts 198°
2026-04-27 15:20 -9.35783 -40.38409 37029 ft 494 kts 198°
2026-04-27 15:20 -9.42283 -40.40789 37032 ft 493 kts 198°
2026-04-27 15:21 -9.48771 -40.43166 37033 ft 493 kts 198°
2026-04-27 15:21 -9.55300 -40.45558 37034 ft 493 kts 198°
2026-04-27 15:22 -9.61776 -40.47932 37040 ft 493 kts 198°
2026-04-27 15:22 -9.68260 -40.50309 37044 ft 492 kts 199°
2026-04-27 15:23 -9.74755 -40.52695 37052 ft 492 kts 199°
2026-04-27 15:23 -9.81177 -40.55056 37064 ft 491 kts 199°
2026-04-27 15:24 -9.87631 -40.57427 37074 ft 491 kts 199°
2026-04-27 15:24 -9.94094 -40.59803 37080 ft 491 kts 199°
2026-04-27 15:25 -10.00539 -40.62173 37085 ft 490 kts 199°
2026-04-27 15:25 -10.06935 -40.64527 37087 ft 490 kts 199°
2026-04-27 15:26 -10.13352 -40.66890 37084 ft 490 kts 199°
2026-04-27 15:26 -10.19807 -40.69265 37082 ft 490 kts 199°
2026-04-27 15:27 -10.26221 -40.71629 37081 ft 490 kts 199°
2026-04-27 15:27 -10.32656 -40.73999 37077 ft 490 kts 199°
2026-04-27 15:28 -10.39069 -40.76364 37076 ft 490 kts 199°
2026-04-27 15:28 -10.45488 -40.78732 37080 ft 490 kts 199°
2026-04-27 15:29 -10.51906 -40.81102 37082 ft 490 kts 199°
2026-04-27 15:29 -10.58324 -40.83472 37083 ft 490 kts 199°
2026-04-27 15:30 -10.64756 -40.85847 37079 ft 489 kts 199°
2026-04-27 15:30 -10.71161 -40.88213 37078 ft 489 kts 199°
2026-04-27 15:31 -10.77591 -40.90590 37080 ft 490 kts 199°
2026-04-27 15:31 -10.84010 -40.92962 37079 ft 490 kts 199°
2026-04-27 15:32 -10.90397 -40.95324 37070 ft 490 kts 199°
2026-04-27 15:32 -10.96833 -40.97703 37067 ft 490 kts 199°
2026-04-27 15:33 -11.03249 -41.00079 37066 ft 490 kts 199°
2026-04-27 15:33 -11.09685 -41.02470 37079 ft 490 kts 199°
2026-04-27 15:34 -11.16111 -41.04856 37097 ft 489 kts 199°
2026-04-27 15:34 -11.22533 -41.07235 37111 ft 489 kts 199°
2026-04-27 15:35 -11.28939 -41.09609 37121 ft 490 kts 199°
2026-04-27 15:35 -11.35354 -41.11988 37128 ft 490 kts 199°
2026-04-27 15:36 -11.41778 -41.14372 37132 ft 490 kts 199°
2026-04-27 15:36 -11.48202 -41.16758 37139 ft 490 kts 199°
2026-04-27 15:37 -11.54636 -41.19150 37141 ft 490 kts 199°
2026-04-27 15:37 -11.61028 -41.21528 37144 ft 489 kts 199°
2026-04-27 15:38 -11.67470 -41.23924 37151 ft 490 kts 199°
2026-04-27 15:38 -11.73877 -41.26308 37155 ft 490 kts 199°
2026-04-27 15:39 -11.80293 -41.28697 37152 ft 489 kts 199°
2026-04-27 15:39 -11.86689 -41.31080 37146 ft 490 kts 199°
2026-04-27 15:40 -11.93097 -41.33467 37141 ft 489 kts 199°
2026-04-27 15:40 -11.99517 -41.35862 37140 ft 489 kts 199°
2026-04-27 15:41 -12.05918 -41.38251 37143 ft 489 kts 199°
2026-04-27 15:41 -12.12314 -41.40637 37136 ft 489 kts 199°
2026-04-27 15:42 -12.18733 -41.43035 37135 ft 490 kts 200°
2026-04-27 15:42 -12.25129 -41.45424 37132 ft 490 kts 200°
2026-04-27 15:43 -12.31539 -41.47821 37132 ft 490 kts 200°
2026-04-27 15:43 -12.37946 -41.50217 37138 ft 490 kts 200°
2026-04-27 15:44 -12.44393 -41.52629 37144 ft 490 kts 200°
2026-04-27 15:44 -12.50783 -41.55022 37144 ft 491 kts 200°
2026-04-27 15:45 -12.57214 -41.57431 37161 ft 490 kts 200°
2026-04-27 15:45 -12.63652 -41.59843 37169 ft 491 kts 200°
2026-04-27 15:46 -12.70068 -41.62250 37173 ft 490 kts 200°
2026-04-27 15:46 -12.76467 -41.64652 37181 ft 491 kts 200°
2026-04-27 15:47 -12.82881 -41.67059 37178 ft 491 kts 200°
2026-04-27 15:47 -12.89315 -41.69476 37180 ft 491 kts 200°
2026-04-27 15:48 -12.95739 -41.71891 37179 ft 491 kts 200°
2026-04-27 15:49 -13.05396 -41.75523 37185 ft 491 kts 200°
2026-04-27 15:49 -13.11827 -41.77943 37170 ft 491 kts 200°
2026-04-27 15:50 -13.18284 -41.80375 37162 ft 499 kts 200°
2026-04-27 15:50 -13.24873 -41.82857 37150 ft 503 kts 200°
2026-04-27 15:51 -13.31461 -41.85341 37150 ft 502 kts 200°
2026-04-27 15:51 -13.38020 -41.87814 37149 ft 502 kts 200°
2026-04-27 15:52 -13.44575 -41.90287 37155 ft 502 kts 200°
2026-04-27 15:52 -13.51140 -41.92765 37157 ft 503 kts 200°
2026-04-27 15:53 -13.57741 -41.95261 37151 ft 503 kts 200°
2026-04-27 15:53 -13.64329 -41.97756 37134 ft 503 kts 200°
2026-04-27 15:54 -13.70901 -42.00247 37113 ft 503 kts 200°
2026-04-27 15:54 -13.77446 -42.02727 37089 ft 502 kts 200°
2026-04-27 15:55 -13.84029 -42.05220 37085 ft 502 kts 200°
2026-04-27 15:55 -13.90600 -42.07713 37082 ft 502 kts 201°
2026-04-27 15:56 -13.97172 -42.10208 37080 ft 503 kts 200°
2026-04-27 15:56 -14.03744 -42.12703 37081 ft 503 kts 201°
2026-04-27 15:57 -14.10292 -42.15191 37081 ft 502 kts 201°
2026-04-27 15:57 -14.16867 -42.17691 37075 ft 502 kts 201°
2026-04-27 15:58 -14.23447 -42.20194 37075 ft 502 kts 201°
2026-04-27 15:58 -14.29992 -42.22685 37079 ft 501 kts 201°
2026-04-27 15:59 -14.36623 -42.25118 37084 ft 502 kts 198°
2026-04-27 15:59 -14.43342 -42.27138 37090 ft 503 kts 197°
2026-04-27 16:00 -14.50050 -42.29100 37092 ft 502 kts 197°
2026-04-27 16:00 -14.56811 -42.31081 37100 ft 502 kts 197°
2026-04-27 16:01 -14.63531 -42.33057 37108 ft 502 kts 197°
2026-04-27 16:01 -14.70258 -42.35037 37114 ft 501 kts 197°
2026-04-27 16:02 -14.76942 -42.37006 37119 ft 501 kts 197°
2026-04-27 16:02 -14.83690 -42.38995 37123 ft 501 kts 197°
2026-04-27 16:03 -14.90427 -42.40984 37134 ft 501 kts 197°
2026-04-27 16:03 -14.97107 -42.42956 37143 ft 500 kts 197°
2026-04-27 16:04 -15.03841 -42.44946 37144 ft 499 kts 197°
2026-04-27 16:04 -15.10501 -42.46914 37144 ft 499 kts 197°
2026-04-27 16:05 -15.17207 -42.48898 37147 ft 499 kts 197°
2026-04-27 16:05 -15.23915 -42.50883 37147 ft 500 kts 197°
2026-04-27 16:06 -15.30609 -42.52867 37151 ft 500 kts 197°
2026-04-27 16:06 -15.37298 -42.54850 37154 ft 499 kts 197°
2026-04-27 16:07 -15.44013 -42.56840 37161 ft 499 kts 197°
2026-04-27 16:07 -15.50699 -42.58825 37168 ft 499 kts 197°
2026-04-27 16:08 -15.57369 -42.60806 37168 ft 499 kts 197°
2026-04-27 16:08 -15.64093 -42.62804 37164 ft 499 kts 197°
2026-04-27 16:09 -15.70748 -42.64783 37164 ft 499 kts 197°
2026-04-27 16:09 -15.80777 -42.67769 37161 ft 499 kts 198°
2026-04-27 16:10 -15.94175 -42.71762 37153 ft 499 kts 198°
2026-04-27 16:11 -16.04209 -42.74754 37144 ft 498 kts 198°
2026-04-27 16:12 -16.14271 -42.77759 37144 ft 498 kts 198°
2026-04-27 16:13 -16.24270 -42.80747 37150 ft 499 kts 198°
2026-04-27 16:13 -16.34296 -42.83748 37142 ft 499 kts 198°
2026-04-27 16:14 -16.47703 -42.87772 37135 ft 499 kts 197°
2026-04-27 16:15 -16.61086 -42.91790 37135 ft 499 kts 197°
2026-04-27 16:16 -16.74477 -42.95815 37143 ft 500 kts 197°
2026-04-27 16:17 -16.87827 -42.99836 37142 ft 499 kts 197°
2026-04-27 16:18 -17.01230 -43.03874 37139 ft 499 kts 197°
2026-04-27 16:19 -17.07936 -43.05899 37135 ft 499 kts 197°